Location: Acqua Marzo
(45.0992°N, 12.1394°E)
Time: 09:33:14
(UTC+00:00)

Daily predictions for brighter satellites

Satellite Brightness Start Highest point End
(mag) Time Altitude Azimuth Time Altitude Azimuth Time Altitude Azimuth
Cosmos 1634 Rocket 4.1 19:15:41 10° N 19:22:02 73° E 19:28:21 10° SSE
STARLINK-1122 3.7 19:21:50 10° WNW 19:26:00 83° NNE 19:30:09 10° ESE
Cosmos 1300 Rocket 4.0 19:23:04 10° N 19:27:23 46° ENE 19:31:39 10° SSE
STARLINK-1239 3.7 19:24:12 10° WSW 19:28:21 83° NNW 19:32:31 10° ENE
Cosmos 2056 Rocket 4.4 19:25:04 10° SW 19:30:04 54° WNW 19:35:07 10° NNE
STARLINK-1126 3.7 19:26:52 10° WNW 19:31:02 88° NNE 19:35:11 10° ESE
Aureole 2 Rocket 3.7 19:29:14 10° SSE 19:31:29 18° ESE 19:33:41 10° NE
STARLINK-1240 3.8 19:29:10 10° WSW 19:33:19 78° NNW 19:37:28 10° NE
Meteor 1-4 Rocket 3.1 19:30:03 10° SSW 19:33:26 59° WNW 19:36:53 10° N
Cosmos 1437 Rocket 3.7 19:30:11 10° SSE 19:33:28 29° E 19:36:48 10° NNE
STARLINK-1082 3.6 19:31:47 10° WNW 19:35:57 86° SW 19:40:05 10° SE
USA 186 4.3 19:35:32 10° SW 19:37:01 14° W 19:38:34 10° WNW
Lacrosse 5 2.0 19:32:45 10° NW 19:37:49 75° SW 19:42:51 10° SE
STARLINK-1203 4.0 19:33:47 10° WSW 19:37:58 73° NNW 19:42:11 10° NE
STARLINK-1216 3.9 19:34:09 10° WSW 19:38:17 73° NNW 19:42:26 10° NE
STARLINK-1100 3.6 19:36:45 10° WNW 19:40:54 80° SW 19:44:56 11° SE
ISS -3.5 19:37:38 10° WNW 19:40:57 59° SW 19:44:06 11° SE
COSMOS 2406 4.3 19:36:51 10° NW 19:42:18 44° WSW 19:47:42 10° S
Cosmos 1975 4.0 19:38:57 10° NNW 19:42:48 43° W 19:46:35 10° SSW
STARLINK-1237 4.0 19:39:09 10° WSW 19:43:17 68° NNW 19:47:25 10° NE
CZ-2C R/B 3.1 19:37:56 10° N 19:43:34 75° WNW 19:49:09 10° SSW
STARLINK-1083 3.7 19:41:46 10° WNW 19:45:54 74° SW 19:49:44 12° SE
Cosmos 1674 Rocket 4.2 19:42:55 10° SSE 19:46:57 38° E 19:51:02 10° NNE
Meteor 2-4 Rocket 3.7 19:41:39 10° SSW 19:47:00 84° W 19:52:24 10° N
STARLINK-1202 4.2 19:44:10 10° WSW 19:48:17 64° NNW 19:52:24 10° NE
NOSS 2-2 (E) 3.9 19:45:44 10° S 19:48:53 30° ESE 19:52:17 10° NE
Cosmos 1378 Rocket 4.5 19:46:02 10° SSE 19:49:55 31° E 19:53:47 10° NNE
EXPRESS MD2 3.2 19:47:17 10° SW 19:50:01 51° SE 19:54:51 10° ENE
STARLINK-1125 3.7 19:46:45 10° WNW 19:50:52 68° SW 19:54:31 13° SE
Cosmos 2297 4.0 19:48:17 10° S 19:53:40 46° ESE 19:59:07 10° NE
Cosmos 1833 Rocket 3.3 19:48:22 10° NW 19:53:50 55° WSW 19:59:17 10° S
Cosmos 1943 Rocket 3.4 19:50:21 10° SSE 19:54:18 21° E 19:58:21 10° NE
STARLINK-1109 3.8 19:51:45 10° WNW 19:55:50 63° SW 19:59:18 14° SE
STARLINK-1123 4.5 19:54:01 10° NW 19:58:02 46° NNE 20:02:02 10° E
STARLINK-1246 4.4 19:54:12 10° WSW 19:58:16 56° NNW 20:02:21 10° NE
IGS 5A 3.9 19:55:29 12° SE 19:59:05 49° ENE 20:03:06 10° N
Cosmos 1452 Rocket 3.7 19:55:03 10° SSW 20:00:19 81° WNW 20:05:39 10° NNE
Cosmos 2082 Rocket 2.3 19:54:50 10° NNW 20:00:35 79° WSW 20:06:02 11° SSE
Cosmos 332 Rocket 3.8 19:55:42 10° SSW 20:00:37 82° ESE 20:05:32 10° NNE
STARLINK-1091 3.9 19:56:42 10° WNW 20:00:47 58° SW 20:04:04 15° SE
BREEZE-M DEB 3.0 19:58:57 10° SSW 20:00:58 28° SE 20:04:21 10° ENE
Landsat 7 4.1 19:57:48 12° SSE 20:02:04 56° ENE 20:06:44 10° N
STARLINK-1097 4.4 19:59:01 10° NW 20:03:03 48° NNE 20:07:05 10° E
Intercosmos 24 3.7 19:59:41 10° N 20:03:15 83° W 20:07:10 10° S
Meteor 1-23 Rocket 4.5 19:59:37 10° SSE 20:05:06 51° E 20:10:32 10° NNE
STARLINK-1072 4.0 20:01:44 10° WNW 20:05:46 53° SW 20:08:52 16° SSE
Cosmos 1461 2.8 20:02:59 10° SSW 20:07:06 82° SE 20:11:29 10° NE
STARLINK-1099 4.3 20:03:59 10° NW 20:08:03 51° NNE 20:11:54 11° ESE
Okean 3 4.5 20:04:54 10° SSW 20:09:04 49° WNW 20:13:16 10° N
Cosmos 2369 Rocket 3.5 20:07:22 14° SE 20:10:13 21° E 20:14:16 10° NE
STARLINK-1096 4.1 20:06:44 10° WNW 20:10:44 48° SW 20:13:39 17° SSE
SAR-Lupe-2 3.6 20:08:10 10° NNE 20:11:45 59° ESE 20:15:09 11° S
STARLINK-1104 4.2 20:08:57 10° NW 20:13:02 54° NNE 20:16:40 13° ESE
NOSS 2-2 (C) 3.4 20:10:02 10° SSW 20:13:24 43° ESE 20:17:03 10° NE
STARLINK-1079 4.3 20:11:44 10° WNW 20:15:41 44° SW 20:18:26 18° SSE
ATLAS 2AS CENTAUR R/B 4.2 20:13:12 14° SE 20:17:11 21° ESE 20:22:46 10° ENE
STARLINK-1144 4.1 20:13:56 10° NW 20:18:02 58° NNE 20:21:28 14° ESE
SL-4 R/B 3.7 20:16:13 10° WNW 20:18:08 16° WSW 20:19:57 10° SSW
SPOT 5 3.7 20:14:18 16° SE 20:18:11 45° ENE 20:23:16 10° N
NOSS 3-2 (A) 4.5 20:13:21 10° NNW 20:20:36 54° NE 20:27:48 14° ESE
STARLINK-1116 4.4 20:16:45 10° WNW 20:20:39 41° SW 20:23:13 19° SSE
STARLINK-1103 4.0 20:18:54 10° NW 20:23:01 61° NNE 20:26:14 16° ESE
ERS-1 Rocket 3.2 20:19:40 17° SE 20:23:21 56° ENE 20:28:18 10° N
Okean 2 4.4 20:25:56 21° SE 20:27:45 29° E 20:31:22 10° NNE
STARLINK-1101 3.9 20:23:52 10° NW 20:28:00 66° NNE 20:31:01 18° ESE
Cosmos 1066 Rocket 4.0 20:22:48 10° S 20:28:11 76° E 20:33:32 10° NNE
USA 245 2.9 20:27:56 19° S 20:29:52 56° WSW 20:32:26 10° NNW
USA 238 DEB 4.2 20:25:25 10° NNW 20:32:31 59° NE 20:38:26 17° ESE
USA 238 4.2 20:25:31 10° NNW 20:32:37 59° NE 20:38:32 17° ESE
STARLINK-1102 3.8 20:28:51 10° NW 20:33:00 70° NNE 20:35:48 20° ESE
Resurs 01 Rocket 3.4 20:29:37 10° SSW 20:33:27 28° W 20:37:19 10° NW
Cosmos 2278 Rocket 4.3 20:28:43 10° WSW 20:33:39 30° NW 20:38:38 10° N
Nadezhda 4 Rocket 3.9 20:28:28 10° S 20:34:35 77° E 20:40:43 10° N
Okean 1 Rocket 3.0 20:30:24 10° N 20:34:53 86° ENE 20:37:54 20° S
Cosmos 1805 3.6 20:31:18 10° N 20:35:10 51° ENE 20:37:07 26° SE
GPS 2-04 Rocket1 4.2 20:33:50 10° SW 20:35:57 16° SSW 20:35:57 16° SSW
STARLINK-1111 3.7 20:33:49 10° NW 20:37:58 75° NNE 20:40:34 22° ESE
Cosmos 1455 Rocket 4.2 20:36:38 10° NNE 20:40:26 29° ENE 20:42:18 21° ESE
STARLINK-1073 3.6 20:38:48 10° NW 20:42:58 81° NNE 20:45:22 24° ESE
SL-8 R/B 3.6 20:38:11 10° WNW 20:43:01 87° SSW 20:46:16 21° ESE
Terra 2.1 20:44:22 24° SE 20:47:02 57° ENE 20:51:43 10° N
Cosmos 1110 Rocket 4.1 20:42:04 10° SSW 20:47:15 80° WNW 20:52:28 10° NNE
SL-4 R/B 2.9 20:42:58 10° SSW 20:47:17 36° SE 20:51:42 10° ENE
ATLAS 3B CENTAUR R/B 4.0 20:37:33 10° WSW 20:47:52 26° S 20:50:57 21° SSE
STARLINK-1121 3.6 20:43:47 10° WNW 20:47:56 86° NNE 20:50:08 27° ESE
Spot 2 Rocket 4.3 20:44:03 13° S 20:48:21 47° W 20:53:13 10° NNW
SPOT 1/Viking Rocket 3.8 20:45:17 18° S 20:49:09 65° WSW 20:54:18 10° NNW
Cosmos 1842 3.9 20:48:51 29° SE 20:50:02 37° E 20:53:39 10° NNE
CARTOSAT-1 3.5 20:47:49 25° SSE 20:50:19 88° WSW 20:54:40 10° NNW
Abrixas rocket 2.1 20:48:31 10° WNW 20:51:25 52° SSW 20:51:50 47° S
STARLINK-1106 3.5 20:48:47 10° WNW 20:52:56 88° SW 20:54:57 30° SE
STARLINK-1112 3.5 20:53:44 10° WNW 20:57:54 82° SSW 20:59:42 33° SE
STARLINK-1128 3.5 20:58:43 10° WNW 21:02:51 76° SW 21:04:28 36° SE
Cosmos 1331 Rocket 4.4 20:58:58 10° SSW 21:04:05 64° WNW 21:09:15 10° NNE
SWAS 4.5 21:00:40 10° NNW 21:04:59 74° ENE 21:06:45 35° SE
STARLINK-1113 3.6 21:03:42 10° WNW 21:07:50 70° SW 21:09:15 39° SE
Cosmos 1733 3.1 21:04:27 10° N 21:08:16 85° E 21:09:32 41° SSE
Meteor 1-21 4.5 21:07:51 28° SSE 21:10:30 51° E 21:15:54 10° NNE
COSMOS 2455 4.0 21:09:45 22° ESE 21:10:34 23° ESE 21:15:06 10° ENE
Cosmos 1378 3.9 21:09:41 20° SSW 21:12:01 50° WNW 21:15:39 10° N
STARLINK-1119 3.6 21:08:43 10° WNW 21:12:50 65° SW 21:14:04 41° SSE
Cosmos 1302 Rocket 3.9 21:10:14 19° SSW 21:14:08 85° ESE 21:19:28 10° NNE
Cosmos 1271 Rocket 3.6 21:14:22 31° ESE 21:14:45 32° E 21:18:15 10° NNE
USA 215 4.5 21:08:49 10° E 21:14:48 40° NNE 21:20:46 10° NW
Cosmos 1486 Rocket 4.2 21:10:33 10° NNW 21:15:49 61° ENE 21:18:13 31° SE
Cosmos 1242 Rocket 2.9 21:15:26 43° ESE 21:15:55 46° E 21:19:28 10° NNE
Cosmos 1544 Rocket 3.9 21:13:06 10° N 21:17:19 50° ENE 21:18:39 36° SE
STARLINK-1114 3.7 21:13:41 10° WNW 21:17:46 59° SW 21:18:49 43° SSE
MTI 3.6 21:15:21 10° NNE 21:18:31 87° ESE 21:18:58 62° S
STARLINK-60 3.5 21:20:10 43° E 21:20:10 43° E 21:22:31 10° ENE
Lacrosse 5 4.1 21:17:38 10° W 21:20:00 13° WSW 21:22:07 11° SW
Cosmos 1092 Rocket 4.0 21:15:31 18° SSW 21:20:08 77° W 21:26:19 10° N
STARLINK-1130 (DARKSAT) 3.8 21:18:41 10° WNW 21:22:45 54° SW 21:23:37 44° S
Cosmos 1707 3.6 21:24:35 32° E 21:24:50 32° E 21:28:21 10° NNE
CENTAUR R/B 3.3 21:17:12 10° NW 21:25:14 71° NE 21:31:08 23° SE
STARLINK-1084 3.9 21:23:41 10° WNW 21:27:43 50° SW 21:28:24 44° S
ATLAS 3B R/B 3.7 21:21:54 10° NNW 21:28:14 40° NE 21:33:56 13° ESE
SL-27 R/B 2.3 21:25:20 10° NNW 21:28:56 83° WSW 21:29:28 62° S
NOSS 3-2 (C) 4.1 21:22:53 10° NW 21:30:27 82° NE 21:35:37 27° SE
Cosmos 1766 4.3 21:27:27 10° NNW 21:31:11 39° W 21:32:47 27° SW
ALOS 2 4.4 21:30:24 17° E 21:32:01 20° ENE 21:35:12 10° NNE
Cosmos 1726 3.7 21:29:20 10° NNE 21:32:22 23° ENE 21:32:50 22° E
STARLINK-1098 4.0 21:28:42 10° WNW 21:32:40 46° SW 21:33:11 43° SSW
Cosmos 1867 4.2 21:29:56 10° NNW 21:35:15 49° NE 21:38:06 26° ESE
COSMOS 2487 4.2 21:33:43 10° N 21:36:27 21° ENE 21:37:03 20° ENE
Cosmos 1943 Rocket 2.6 21:32:03 10° SW 21:37:31 61° WNW 21:43:05 10° NNE
STARLINK-1123 4.1 21:33:41 10° WNW 21:37:37 42° SW 21:37:56 41° SSW
Cosmos 1992 Rocket 4.1 21:36:07 39° SSE 21:37:42 54° ESE 21:42:47 10° NNE
NOSS 3-4 (A) 3.5 21:36:32 32° S 21:39:03 54° ESE 21:45:08 10° NE
NOSS 3-4 (C) 3.5 21:36:40 32° S 21:39:09 53° ESE 21:45:14 10° NE
STARLINK-1097 4.3 21:38:44 10° WNW 21:42:36 38° SW 21:42:45 38° SW
SeaSat 1 2.8 21:38:54 10° NE 21:43:40 46° ESE 21:44:34 41° SE
EO 1 Del DPAF 3.4 21:40:39 10° NNE 21:44:21 52° E 21:44:29 52° ESE
Cosmos 1975 Rocket 4.0 21:44:36 22° SW 21:47:02 43° WNW 21:51:16 10° N
STARLINK-1099 4.4 21:43:44 10° WNW 21:47:31 35° SW 21:47:31 35° SW
STARLINK-1212 4.0 21:47:19 10° NW 21:50:17 40° NNE 21:50:47 37° NE
Cosmos 292 Rocket 3.9 21:48:20 30° SSW 21:50:44 73° WNW 21:55:36 10° NNE
STARLINK-1105 3.9 21:47:48 10° NW 21:50:45 40° NNE 21:51:13 37° NE
STARLINK-1247 3.9 21:48:39 10° NW 21:51:39 41° NNE 21:52:06 38° NE
BREEZE-M DEB (TANK) 3.8 21:38:33 10° WSW 21:51:53 69° NNW 21:55:32 10° ENE
STARLINK-1227 3.9 21:49:09 10° NW 21:52:07 41° NNE 21:52:32 38° NE
Meteor 2-10 4.2 21:47:15 10° N 21:52:14 58° ENE 21:53:43 41° SE
RESURS DK-1 4.4 21:53:56 16° E 21:53:56 16° E 21:55:34 10° ENE
STARLINK-1226 3.9 21:50:01 10° NW 21:53:00 42° NNE 21:53:24 39° NE
BREEZE-M DEB (TANK) 3.7 21:49:27 10° WNW 21:53:05 50° N 21:57:04 10° E
Cosmos 2369 Rocket 2.6 21:49:04 15° SW 21:53:42 63° WNW 21:59:20 10° NNE
STARLINK-1215 3.8 21:50:54 10° NW 21:53:54 42° NNE 21:54:16 40° NE
S3M 4.0 21:49:29 10° N 21:55:40 72° E 21:58:11 38° SSE
STARLINK-1217 3.8 21:52:43 10° NW 21:55:43 43° NNE 21:56:00 42° NE
STARLINK-1229 3.8 21:53:37 10° NW 21:56:38 44° NNE 21:56:54 43° NE
STARLINK-1270 3.7 21:54:30 10° NW 21:57:32 45° NNE 21:57:45 44° NE
STARLINK-1189 3.7 21:56:17 10° NW 21:59:20 46° NNE 21:59:29 45° NE
Aureole 3 Rocket 4.5 21:53:02 10° NNW 21:59:23 76° W 22:03:53 30° S
ATLAS CENTAUR R/B 1.5 21:59:35 55° SE 21:59:38 55° ESE 22:03:44 10° NE
STARLINK-1188 3.7 21:57:12 10° NW 22:00:15 47° NNE 22:00:22 46° NE
STARLINK-1187 3.5 21:58:17 10° NW 22:01:14 52° NNE 22:01:14 52° NNE
Cosmos 1340 Rocket 3.2 21:58:05 10° N 22:02:03 49° ENE 22:02:31 46° E
STARLINK-1191 3.6 21:59:38 10° NW 22:02:39 48° NNE 22:02:39 48° NNE
STARLINK-1221 3.6 22:00:36 10° NW 22:03:34 49° NNE 22:03:34 49° NNE
Aureole 3 4.3 22:01:01 10° NNE 22:03:24 27° ENE 22:03:24 27° ENE
Cosmos 1025 Rocket 2.9 22:02:57 56° SSW 22:03:49 84° W 22:08:09 10° N
STARLINK-1222 3.6 22:01:26 10° NW 22:04:23 49° NNE 22:04:23 49° NNE
Thor Agena Rocket 3.5 21:59:53 10° NNE 22:05:13 88° WNW 22:07:12 40° SSW
STARLINK-1214 3.6 22:02:20 10° NW 22:05:15 50° NNE 22:05:15 50° NNE
ATLAS 2AS CENTAUR R/B 3.0 22:00:30 16° SSW 22:07:13 86° SE 22:15:12 10° NE
Cosmos 1656 Rocket 3.6 22:04:50 36° SSW 22:07:16 88° ESE 22:12:53 10° NNE
BREEZE M DEB (TANK) 3.6 22:05:41 10° WNW 22:08:20 31° N 22:08:33 30° N
Cosmos 1553 Rocket 4.1 22:02:54 10° NNW 22:09:09 69° W 22:11:43 36° SSW
Cosmos 1953 2.2 22:06:23 10° N 22:10:24 75° E 22:10:41 70° ESE
BREEZE-M DEB (TANK) 3.6 21:59:24 10° WNW 22:10:42 76° SSW 22:11:56 47° SE
STARLINK-1228 3.2 22:07:46 10° NW 22:11:08 75° N 22:11:08 75° N
Cosmos 1470 3.4 22:07:42 10° NNW 22:11:24 43° W 22:11:51 41° WSW
Cosmos 2292 Rocket 3.5 22:13:24 50° ENE 22:13:24 50° ENE 22:16:17 10° NNE
STARLINK-1235 3.5 22:10:28 10° NW 22:13:12 57° NNW 22:13:12 57° NNW
Cosmos 968 Rocket 3.8 22:11:17 10° NNW 22:16:16 52° WSW 22:17:31 42° SSW
Cosmos 1655 Rocket 3.9 22:15:01 38° SSW 22:17:38 85° W 22:23:56 10° N
SL-4 R/B 3.7 22:20:18 16° N 22:20:18 16° N 22:20:53 10° N
ATLAS 5 CENTAUR R/B 1.6 22:21:46 58° WSW 22:22:17 72° NW 22:24:38 10° NE
Cosmos 1758 4.3 22:21:07 10° NNW 22:24:53 37° W 22:25:25 35° WSW
STARLINK-52 4.5 22:26:27 30° NE 22:26:27 30° NE 22:28:16 10° NE
Terra 3.9 22:23:15 14° WSW 22:25:08 17° W 22:28:17 10° NW
SL-4 R/B 2.7 22:22:05 10° WSW 22:26:53 65° NNW 22:31:42 10° ENE
Cosmos 2228 3.5 22:24:03 10° N 22:28:08 44° ENE 22:28:36 42° E
Cosmos 1726 Rocket 4.4 22:24:50 10° N 22:28:53 38° ENE 22:29:30 35° E
Meteor 2-15 4.4 22:22:50 10° N 22:29:02 79° E 22:31:06 44° SSE
STARLINK-1234 4.3 22:28:14 10° WNW 22:30:17 35° WNW 22:30:17 35° WNW
In-Cosmos 22 4.0 22:30:05 50° SSW 22:31:31 88° W 22:36:50 10° N
Cosmos 921 Rocket 4.4 22:31:52 24° E 22:31:52 24° E 22:35:07 10° NE
Cosmos 2266 Rocket 3.9 22:33:43 42° SSW 22:35:55 84° W 22:42:00 10° N
Cosmos 1503 Rocket 4.5 22:31:18 10° NNW 22:36:26 49° WSW 22:37:35 42° SW
STARLINK-1204 4.4 22:37:54 10° NW 22:41:56 49° NNE 22:43:59 26° E
SJ 16-02 3.9 22:41:45 10° NNE 22:44:16 15° NE 22:46:47 10° E
STARLINK-1238 4.3 22:42:54 10° NW 22:46:58 52° NNE 22:48:47 29° E
Cosmos 1674 2.6 22:48:20 80° N 22:48:20 80° N 22:51:57 10° N
Meteor 2-15 Rocket 4.4 22:42:45 10° N 22:48:57 89° E 22:50:55 46° S
Helios 1B rocket 4.1 22:47:00 10° NE 22:50:09 22° E 22:50:09 22° E
STARLINK-1201 4.2 22:47:51 10° NW 22:51:57 55° NNE 22:53:33 33° E
COSMOS 2455 3.1 22:52:50 29° SW 22:55:58 67° NW 23:01:59 10° NNE
STARLINK-1206 4.1 22:52:51 10° NW 22:56:57 59° NNE 22:58:21 37° E
USA 215 3.2 22:52:57 23° ESE 22:57:22 85° NE 23:03:57 10° NW
Cosmos 2219 4.2 22:53:45 10° NNW 22:59:05 40° NE 23:02:17 22° ESE
STARLINK-1350 4.4 23:01:49 36° ENE 23:01:49 36° ENE 23:04:12 10° ENE
Helios 1A 2.8 23:01:35 78° SSE 23:01:51 87° ENE 23:06:04 10° NNW
STARLINK-1205 4.0 22:57:48 10° NW 23:01:56 63° NNE 23:03:07 42° E
Cosmos 2297 Rocket 3.4 22:58:07 10° NNW 23:03:20 36° NE 23:07:00 18° ESE
Lacrosse 4 Rocket 4.2 23:04:12 10° N 23:06:39 15° NE 23:09:03 10° ENE
STARLINK-1218 3.9 23:02:48 10° NW 23:06:56 67° NNE 23:07:55 48° E
STARLINK-1368 4.2 23:08:27 43° ENE 23:08:27 43° ENE 23:11:09 10° ENE
Cosmos 1726 3.8 23:04:28 10° NW 23:07:20 24° W 23:07:20 24° W
ALOS 2 3.1 23:07:47 44° WSW 23:08:02 45° W 23:12:15 10° NNW
STARLINK-1369 4.0 23:11:47 48° ENE 23:11:47 48° ENE 23:14:38 10° ENE
Timation 2 Rocket 3.8 23:04:32 10° NNW 23:10:52 87° WSW 23:12:55 45° SSE
Cosmos 2058 Rocket 3.1 23:07:00 10° N 23:11:26 69° E 23:11:58 62° SE
COSMOS 2487 4.3 23:08:35 10° NW 23:10:32 22° WNW 23:10:32 22° WNW
STARLINK-1254 3.7 23:07:46 10° NW 23:11:55 72° NNE 23:12:41 55° E
STARLINK-1372 3.8 23:15:07 54° ENE 23:15:07 54° ENE 23:18:07 10° ENE
Meteor 2-5 Rocket 3.6 23:14:12 51° SSW 23:15:40 85° W 23:21:21 10° N
CENTAUR R/B 4.0 23:08:27 10° NW 23:15:42 35° WSW 23:18:17 29° SW
STARLINK-1231 3.6 23:12:44 10° NW 23:16:54 77° NNE 23:17:27 63° E
STARLINK-1378 3.7 23:18:28 59° ENE 23:18:28 59° ENE 23:21:37 10° ENE
SL-14 R/B 3.3 23:19:11 70° ENE 23:19:11 70° ENE 23:22:52 10° NNE
ATLAS 3B R/B 2.9 23:12:32 10° NW 23:19:10 55° WSW 23:21:09 42° SSW
FALCON 9 DEB 4.1 23:20:07 43° NW 23:20:31 45° NNW 23:23:52 10° NE
SeaSat 1 4.1 23:16:45 10° N 23:20:59 29° NW 23:24:20 14° WSW
STARLINK-1379 3.6 23:21:51 65° ENE 23:21:51 65° ENE 23:25:08 10° ENE
Cosmos 1606 Rocket 4.0 23:17:15 10° NNW 23:21:24 46° W 23:21:36 46° WSW
STARLINK-1232 3.6 23:17:43 10° WNW 23:21:54 82° NNE 23:22:15 72° E
STARLINK-1329 3.5 23:23:14 68° NE 23:23:14 68° NE 23:26:36 10° ENE
Meteor 2-21 4.4 23:20:59 46° S 23:22:58 88° W 23:29:13 10° N
SL-16 R/B 4.5 23:20:43 10° ESE 23:25:22 23° ENE 23:30:01 10° N
STARLINK-1362 3.5 23:26:40 73° NE 23:26:40 73° NE 23:30:11 10° ENE
STARLINK-1208 3.5 23:22:41 10° WNW 23:26:51 88° NE 23:27:00 83° ESE
Cosmos 1656 4.3 23:27:53 38° SE 23:29:00 42° ESE 23:34:15 10° NE
ATLAS CENTAUR R/B 2.8 23:26:52 10° NNW 23:29:07 34° NE 23:33:18 10° ESE
STARLINK-1373 3.4 23:30:05 77° N 23:30:05 77° N 23:33:46 10° NE
RESURS DK-1 3.0 23:29:48 42° W 23:30:31 47° WNW 23:34:33 10° NNE
STARLINK-1365 3.4 23:31:12 76° NNW 23:31:12 76° NNW 23:35:01 10° NE
STARLINK-1271 3.5 23:27:41 10° WNW 23:31:49 86° WSW 23:31:49 86° WSW
STARLINK-1390 3.4 23:33:35 75° NNW 23:33:35 75° NNW 23:37:23 10° NE
Cosmos 1697 Rocket 4.0 23:32:47 24° ESE 23:34:05 26° ESE 23:38:40 10° NE
Cosmos 2084 4.0 23:33:37 43° W 23:34:46 58° NW 23:39:12 10° NNE
Cosmos 1626 2.3 23:36:00 65° WNW 23:36:00 65° WNW 23:39:32 10° N
BREEZE-M R/B 3.3 23:31:45 20° WSW 23:36:42 82° SSE 23:40:25 10° ENE
STARLINK-1154 3.5 23:32:40 10° WNW 23:36:35 76° W 23:36:35 76° W
Okean 1-7 Rocket 3.7 23:37:39 56° WSW 23:38:14 63° W 23:42:45 10° N
ATLAS CENTAUR R/B 3.6 23:35:42 11° W 23:38:48 22° NW 23:42:02 10° N
Cosmos 2227 Rocket 2.6 23:34:47 10° NNW 23:40:24 58° ENE 23:43:30 26° SE
STARLINK-1197 3.6 23:37:38 10° WNW 23:41:21 66° W 23:41:21 66° W
CZ-4 R/B 3.7 23:38:11 10° NNE 23:42:59 89° ESE 23:43:50 61° SSW
STARLINK-1198 3.8 23:42:37 10° WNW 23:46:07 57° W 23:46:07 57° W
Cosmos 1602 Rocket 3.8 23:47:23 49° ESE 23:47:56 53° E 23:52:09 10° NNE
SL-08 ROCKET BODY 4.4 23:46:46 43° SSE 23:48:41 72° E 23:54:31 10° NNE
STARLINK-1199 4.0 23:47:37 10° WNW 23:50:55 50° W 23:50:55 50° W
